Retour au catalogue

COSMOS 970 DEB

ActifLEO
NORAD 10877·DEBRIS·🇷🇺 Russia

Lancé Dec 21, 1977 depuis Baikonur Cosmodrome

Loading…

Prochains Passages (prochaines 24 heures)

TLE

FraisSource: Space-Track

Époque: Sep 14, 2026, 11:46 UTC

1 10877U 77121Y   26257.49045198  .00000171  00000-0  23766-3 0  9999
2 10877  65.7697 336.4921 0151998 261.6683  96.7122 13.76332592440813

Suivez COSMOS 970 DEB en temps réel avec AllMySat

Download on the App Store